DW7447 Weather Reports


Display with metric or nautical units.
time (UTC)temp
F
wind
direction
speed
MPH
gust
MPH
rain 1hr
in
rain 24hr
in
rain mn
in
humidity
%
barometer
mb
20260506184930 47 92 4.0 7.0 0.00 0.00 0.00 69 1015.8
20260506184430 47 52 2.0 9.0 0.00 0.00 0.00 70 1015.7
20260506183930 47 38 4.0 9.0 0.00 0.00 0.00 70 1015.7
20260506183431 47 16 4.0 9.0 0.00 0.00 0.00 68 1015.7
20260506182929 47 73 5.0 12.0 0.00 0.00 0.00 68 1015.7
20260506182429 47 58 6.0 12.0 0.00 0.00 0.00 68 1015.7
20260506181929 48 69 2.0 11.0 0.00 0.00 0.00 68 1015.6
20260506181431 48 86 5.0 11.0 0.00 0.00 0.00 67 1015.6
20260506180931 48 45 5.0 11.0 0.00 0.00 0.00 68 1015.6
20260506180430 48 48 4.0 11.0 0.00 0.00 0.00 67 1015.4
20260506175907 48 66 4.0 9.0 0.00 0.00 0.00 68 1015.5
20260506174904 48 61 2.0 9.0 0.00 0.00 0.00 67 1015.5
20260506174403 48 86 4.0 12.0 0.00 0.00 0.00 67 1015.4
20260506172848 48 58 5.0 11.0 0.00 0.00 0.00 69 1015.5
20260506172331 48 71 5.0 11.0 0.00 0.00 0.00 68 1015.6
20260506171832 48 358 5.0 11.0 0.00 0.00 0.00 67 1015.6
20260506171329 48 79 4.0 11.0 0.00 0.00 0.00 67 1015.7
20260506170829 49 39 6.0 13.0 0.00 0.00 0.00 68 1015.8
20260506170346 49 23 6.0 13.0 0.00 0.00 0.00 68 1015.8
20260506165830 49 30 6.0 13.0 0.00 0.00 0.00 67 1015.8
20260506165331 49 37 5.0 14.0 0.00 0.00 0.00 67 1015.8
20260506164830 49 82 6.0 14.0 0.00 0.00 0.00 67 1015.8
20260506164329 49 44 6.0 11.0 0.00 0.00 0.00 66 1015.7
20260506163328 49 0 5.0 14.0 0.00 0.00 0.00 65 1015.8
20260506162830 49 24 7.0 14.0 0.00 0.00 0.00 66 1015.8
20260506161830 49 8 6.0 12.0 0.00 0.00 0.00 64 1015.8
20260506161330 50 38 6.0 15.0 0.00 0.00 0.00 64 1015.9
20260506160828 50 27 9.0 15.0 0.00 0.00 0.00 66 1015.8
20260506154329 50 39 6.0 14.0 0.00 0.00 0.00 62 1015.9
20260506153828 50 1 5.0 16.0 0.00 0.00 0.00 61 1015.9
20260506153329 50 65 5.0 16.0 0.00 0.00 0.00 61 1015.9
20260506152829 51 49 7.0 16.0 0.00 0.00 0.00 61 1015.9
20260506152330 51 20 7.0 16.0 0.00 0.00 0.00 61 1015.8
20260506151830 51 18 8.0 14.0 0.00 0.00 0.00 60 1015.9
20260506151331 49 38 7.0 14.0 0.00 0.00 0.00 61 1016.0
20260506150830 49 0 5.0 11.0 0.00 0.00 0.00 61 1015.9
20260506150330 49 358 7.0 11.0 0.00 0.00 0.00 61 1015.9
20260506145830 49 68 4.0 13.0 0.00 0.00 0.00 62 1015.8
20260506145330 49 10 6.0 13.0 0.00 0.00 0.00 62 1015.8
20260506144329 49 32 8.0 13.0 0.00 0.00 0.00 62 1015.8
20260506143329 50 21 8.0 14.0 0.00 0.00 0.00 62 1016.0
20260506142831 51 55 5.0 14.0 0.00 0.00 0.00 62 1015.9
20260506142330 51 17 5.0 15.0 0.00 0.00 0.00 62 1015.9
20260506141829 51 75 6.0 15.0 0.00 0.00 0.00 62 1015.9
20260506141330 51 21 8.0 14.0 0.00 0.00 0.00 61 1015.9
20260506140828 52 82 5.0 13.0 0.00 0.00 0.00 62 1015.9
20260506140329 51 44 6.0 13.0 0.00 0.00 0.00 63 1015.9
20260506135828 51 47 5.0 12.0 0.00 0.00 0.00 63 1016.0
20260506135330 50 14 5.0 14.0 0.00 0.00 0.00 63 1015.9
20260506134828 50 0 7.0 14.0 0.00 0.00 0.00 62 1016.0
20260506134329 51 10 7.0 14.0 0.00 0.00 0.00 62 1015.9
20260506133830 50 4 6.0 12.0 0.00 0.00 0.00 63 1016.0
20260506132829 50 31 6.0 13.0 0.00 0.00 0.00 62 1016.0
20260506132330 50 61 8.0 13.0 0.00 0.00 0.00 62 1016.0
20260506131829 50 314 6.0 14.0 0.00 0.00 0.00 65 1016.1
20260506131328 50 7 6.0 14.0 0.00 0.00 0.00 64 1016.1
20260506130830 49 23 3.0 12.0 0.00 0.00 0.00 64 1016.0
20260506125831 49 63 6.0 12.0 0.00 0.00 0.00 62 1015.9
20260506125331 49 48 5.0 12.0 0.00 0.00 0.00 63 1016.0
20260506124829 49 25 4.0 13.0 0.00 0.00 0.00 61 1016.0
20260506124328 49 3 8.0 13.0 0.00 0.00 0.00 60 1016.0
20260506123828 49 39 8.0 13.0 0.00 0.00 0.00 60 1016.0
20260506123329 49 25 7.0 12.0 0.00 0.00 0.00 60 1016.0
20260506122829 50 10 6.0 12.0 0.00 0.00 0.00 58 1016.0
20260506122331 50 7 6.0 14.0 0.00 0.00 0.00 61 1016.0
20260506121829 50 54 8.0 14.0 0.00 0.00 0.00 62 1016.0
20260506121329 50 16 6.0 12.0 0.00 0.00 0.00 62 1016.0
20260506120829 50 4 6.0 13.0 0.00 0.00 0.00 62 1016.0
20260506120329 50 0 7.0 14.0 0.00 0.00 0.00 62 1016.1
20260506115828 51 21 6.0 14.0 0.00 0.00 0.00 60 1016.1
20260506114829 51 32 5.0 14.0 0.00 0.00 0.00 62 1016.0
20260506114330 52 0 9.0 15.0 0.00 0.00 0.00 62 1016.0
20260506113830 51 16 8.0 17.0 0.00 0.00 0.00 62 1016.1
20260506113330 51 44 7.0 17.0 0.00 0.00 0.00 64 1016.1
20260506112829 49 6 6.0 13.0 0.00 0.00 0.00 61 1016.1
20260506112329 49 18 4.0 13.0 0.00 0.00 0.00 62 1016.2
20260506111829 49 0 7.0 12.0 0.00 0.00 0.00 62 1016.3
20260506111331 50 55 3.0 13.0 0.00 0.00 0.00 62 1016.3
20260506110829 50 18 7.0 13.0 0.00 0.00 0.00 62 1016.3
20260506110330 50 4 6.0 13.0 0.00 0.00 0.00 62 1016.3
20260506105828 49 18 5.0 14.0 0.00 0.00 0.00 63 1016.2
20260506105328 49 350 8.0 15.0 0.00 0.00 0.00 63 1016.2
20260506104829 50 18 7.0 15.0 0.00 0.00 0.00 61 1016.3
20260506103330 49 41 7.0 14.0 0.00 0.00 0.00 67 1016.3
20260506102830 47 96 7.0 13.0 0.00 0.00 0.00 67 1016.3
20260506101830 47 14 7.0 13.0 0.00 0.00 0.00 67 1016.3
20260506095828 47 16 7.0 16.0 0.00 0.00 0.00 67 1016.3
20260506094330 47 354 6.0 17.0 0.00 0.00 0.00 69 1016.3
20260506093828 47 34 8.0 17.0 0.00 0.00 0.00 69 1016.4
20260506092828 49 6 9.0 17.0 0.00 0.00 0.00 66 1016.3
20260506092328 49 0 9.0 17.0 0.00 0.00 0.00 66 1016.3
20260506091830 49 7 9.0 16.0 0.00 0.00 0.00 67 1016.3
20260506091328 49 0 7.0 16.0 0.00 0.00 0.00 64 1016.3
20260506090829 49 20 10.0 16.0 0.00 0.00 0.00 64 1016.4
20260506090330 48 347 8.0 15.0 0.00 0.00 0.00 63 1016.4
20260506085828 49 333 6.0 12.0 0.00 0.00 0.00 63 1016.3
20260506085328 49 61 5.0 13.0 0.00 0.00 0.00 65 1016.3
20260506084828 48 10 8.0 15.0 0.00 0.00 0.00 65 1016.3
20260506084329 48 16 7.0 15.0 0.00 0.00 0.00 65 1016.3
20260506083828 47 0 8.0 14.0 0.00 0.00 0.00 67 1016.4
20260506083329 46 28 6.0 15.0 0.00 0.00 0.00 68 1016.4
20260506082829 46 10 8.0 15.0 0.00 0.00 0.00 67 1016.3
20260506082328 46 66 7.0 13.0 0.00 0.00 0.00 67 1016.2
20260506081828 46 27 5.0 16.0 0.00 0.00 0.00 68 1016.3
20260506081330 45 63 7.0 16.0 0.00 0.00 0.00 70 1016.4
20260506080829 45 3 9.0 14.0 0.00 0.00 0.00 69 1016.3
20260506080329 45 7 5.0 15.0 0.00 0.00 0.00 69 1016.2
20260506073327 45 34 8.0 14.0 0.00 0.00 0.00 74 1016.1
20260506072808 45 351 6.0 14.0 0.00 0.00 0.00 73 1016.1
20260506072301 45 0 6.0 14.0 0.00 0.00 0.00 72 1016.0
20260506071801 45 1 6.0 13.0 0.00 0.00 0.00 74 1016.0
20260506071301 44 17 8.0 14.0 0.00 0.00 0.00 76 1015.9
20260506070803 44 1 8.0 14.0 0.00 0.00 0.00 80 1015.9
20260506070304 43 72 9.0 14.0 0.00 0.00 0.00 80 1016.0
20260506062305 40 188 2.0 5.0 0.00 0.00 0.00 90 1015.7
20260506061801 40 254 2.0 5.0 0.00 0.00 0.00 90 1015.8
20260506061303 40 254 2.0 5.0 0.00 0.00 0.00 90 1015.6
20260506060804 40 264 2.0 7.0 0.00 0.00 0.00 90 1015.7
20260506060303 40 254 3.0 12.0 0.00 0.00 0.00 91 1015.6
20260506051228 37 306 2.0 5.0 0.00 0.00 0.00 90 1015.7
20260506050728 37 288 1.0 5.0 0.00 0.00 0.00 90 1015.6
20260506050229 37 189 2.0 8.0 0.00 0.00 0.00 90 1015.8
20260506044229 38 251 2.0 6.0 0.00 0.00 0.00 88 1015.6
20260506043229 38 251 3.0 6.0 0.00 0.00 0.00 89 1015.6
20260506042730 39 272 2.0 5.0 0.00 0.00 0.00 89 1015.6
20260506042228 39 289 1.0 4.0 0.00 0.00 0.00 89 1015.6
20260506041728 39 69 0.0 2.0 0.00 0.00 0.00 89 1015.6
20260506041227 40 69 0.0 3.0 0.00 0.00 0.00 89 1015.6
20260506040727 40 69 0.0 3.0 0.00 0.00 0.00 89 1015.5
20260506035728 40 30 1.0 5.0 0.00 0.00 0.00 89 1015.6
20260506035228 40 135 2.0 5.0 0.00 0.00 0.00 89 1015.6
20260506034730 40 31 0.0 4.0 0.00 0.00 0.00 89 1015.6
20260506034230 40 0 1.0 4.0 0.00 0.00 0.00 89 1015.7
20260506033729 40 25 1.0 5.0 0.00 0.00 0.00 88 1015.6
20260506032729 40 18 0.0 3.0 0.00 0.00 0.00 87 1015.7
20260506032229 40 18 0.0 3.0 0.00 0.00 0.00 87 1015.7
20260506031727 40 18 0.0 3.0 0.00 0.00 0.00 87 1015.8
20260506031227 40 18 0.0 3.0 0.00 0.00 0.00 87 1015.7
20260506030728 40 18 0.0 5.0 0.00 0.00 0.00 87 1015.7
20260506025729 40 14 2.0 6.0 0.00 0.00 0.00 87 1015.7
20260506025229 40 4 2.0 6.0 0.00 0.00 0.00 87 1015.7
20260506023727 40 354 4.0 8.0 0.00 0.00 0.00 86 1015.7
20260506023229 40 7 2.0 7.0 0.00 0.00 0.00 86 1015.7
20260506022236 40 0 2.0 6.0 0.00 0.00 0.00 85 1015.7
20260506021728 40 0 3.0 7.0 0.00 0.00 0.00 85 1015.8
20260506021229 40 0 4.0 8.0 0.00 0.00 0.00 85 1015.8
20260506020230 40 353 4.0 8.0 0.00 0.00 0.00 86 1015.7
20260506015730 40 337 4.0 8.0 0.00 0.00 0.00 86 1015.8
20260506015227 40 25 5.0 8.0 0.00 0.00 0.00 86 1015.8
20260506014729 41 11 2.0 11.0 0.00 0.00 0.00 86 1015.9
20260506013730 41 10 4.0 9.0 0.00 0.00 0.00 86 1015.8
20260506013228 41 10 4.0 8.0 0.00 0.00 0.00 85 1015.8
20260506012228 41 13 4.0 8.0 0.00 0.00 0.00 84 1015.8
20260506011727 41 0 3.0 8.0 0.00 0.00 0.00 83 1015.8
20260506011229 42 24 3.0 6.0 0.00 0.00 0.00 82 1015.9
20260506010728 42 35 3.0 6.0 0.00 0.00 0.00 82 1015.9
20260506010227 42 27 2.0 12.0 0.00 0.00 0.00 82 1015.8
20260506005729 42 27 4.0 12.0 0.00 0.00 0.00 82 1015.8
20260506005229 42 10 6.0 11.0 0.00 0.00 0.00 81 1015.9
20260506004227 42 0 6.0 11.0 0.00 0.00 0.00 81 1016.0
20260506003727 42 24 5.0 9.0 0.00 0.00 0.00 81 1016.0
20260506003230 42 13 5.0 9.0 0.00 0.00 0.00 82 1016.1
20260506002728 42 0 5.0 12.0 0.00 0.00 0.00 82 1016.0
20260506002229 42 358 7.0 12.0 0.00 0.00 0.00 82 1016.1
20260506001729 42 354 6.0 12.0 0.00 0.00 0.00 82 1016.1
20260506000727 42 0 7.0 11.0 0.00 0.00 0.00 83 1016.1
20260506000229 42 0 5.0 9.0 0.00 0.00 0.00 83 1016.1
20260505235727 42 16 3.0 9.0 0.00 0.00 0.00 83 1016.1
20260505235227 42 11 3.0 9.0 0.00 0.00 0.00 83 1016.1
20260505234229 42 6 4.0 8.0 0.00 0.00 0.00 83 1016.1
20260505233729 42 4 4.0 8.0 0.00 0.00 0.00 83 1016.2
20260505233228 42 16 2.0 8.0 0.00 0.00 0.00 82 1016.2
20260505232230 42 1 2.0 6.0 0.00 0.00 0.00 82 1016.2
20260505231729 42 20 3.0 8.0 0.00 0.00 0.00 82 1016.4
20260505231230 42 0 4.0 8.0 0.00 0.00 0.00 82 1016.3
20260505230730 42 8 4.0 8.0 0.00 0.00 0.00 82 1016.4
20260505230227 42 20 3.0 9.0 0.00 0.00 0.00 82 1016.4
20260505225727 42 17 5.0 9.0 0.00 0.00 0.00 82 1016.6
20260505224727 42 3 5.0 11.0 0.00 0.00 0.00 82 1016.4
20260505224229 42 13 4.0 11.0 0.00 0.00 0.00 81 1016.4
20260505223730 43 8 4.0 12.0 0.00 0.00 0.00 81 1016.3
20260505223227 43 16 7.0 12.0 0.00 0.00 0.00 82 1016.4
20260505222729 43 20 7.0 12.0 0.00 0.00 0.00 82 1016.4
20260505222228 43 17 4.0 8.0 0.00 0.00 0.00 82 1016.4
20260505221229 43 11 4.0 11.0 0.00 0.00 0.00 81 1016.4
20260505220728 43 21 6.0 11.0 0.00 0.00 0.00 81 1016.6
20260505220230 44 10 6.0 11.0 0.00 0.00 0.00 82 1016.4
20260505215728 44 3 4.0 12.0 0.00 0.00 0.00 82 1016.6
20260505215229 44 20 6.0 12.0 0.00 0.00 0.00 82 1016.6
20260505214728 44 16 5.0 12.0 0.00 0.00 0.00 82 1016.4
20260505214228 44 11 4.0 12.0 0.00 0.00 0.00 81 1016.4
20260505213228 44 16 7.0 13.0 0.00 0.00 0.00 81 1016.4
20260505212728 44 347 6.0 12.0 0.00 0.00 0.00 82 1016.6
20260505211728 44 32 6.0 16.0 0.00 0.00 0.00 82 1016.7
20260505211227 44 23 9.0 16.0 0.00 0.00 0.00 82 1016.7
20260505210728 44 13 7.0 12.0 0.00 0.00 0.00 84 1016.8
20260505210229 44 18 5.0 13.0 0.00 0.00 0.00 84 1016.7
20260505205730 44 34 6.0 13.0 0.00 0.00 0.00 84 1016.7
20260505205228 44 59 7.0 13.0 0.00 0.00 0.00 84 1016.9
20260505204729 44 47 8.0 13.0 0.00 0.00 0.00 84 1016.8
20260505204228 44 47 4.0 11.0 0.00 0.00 0.00 84 1016.8
20260505203226 44 7 5.0 13.0 0.00 0.00 0.00 84 1016.7
20260505202730 44 25 6.0 14.0 0.00 0.00 0.00 84 1016.7
20260505202229 44 28 7.0 14.0 0.00 0.00 0.00 84 1016.7
20260505201728 44 14 7.0 14.0 0.00 0.00 0.00 85 1016.7
20260505201229 44 0 7.0 12.0 0.00 0.00 0.00 85 1016.7
20260505200727 44 47 4.0 11.0 0.00 0.00 0.00 85 1016.6
20260505200231 44 0 6.0 11.0 0.00 0.00 0.00 85 1016.6
20260505195727 44 4 7.0 15.0 0.00 0.00 0.00 85 1016.7
20260505194228 44 7 7.0 16.0 0.00 0.00 0.00 85 1016.6
20260505193228 45 28 10.0 16.0 0.00 0.00 0.00 85 1016.4
20260505192727 45 17 9.0 13.0 0.00 0.00 0.00 85 1016.3
20260505192229 45 16 7.0 14.0 0.00 0.00 0.00 86 1016.3
20260505191728 45 0 8.0 14.0 0.00 0.00 0.00 86 1016.2
20260505191227 45 25 6.0 16.0 0.00 0.00 0.00 86 1016.1
20260505190227 45 56 7.0 18.0 0.00 0.00 0.00 85 1016.1